Change the Weather History Date:

Monday, July 7, 2014

  Actual Average Record
Temperature  
Mean Temperature 84 °F 77 °F  
Max Temperature 99 °F 91 °F 106 °F (1913)
Min Temperature 69 °F 63 °F 41 °F (1948)
Degree Days  
Heating Degree Days 0 0  
Month to date heating degree days 0 0  
Since 1 June heating degree days 0 2  
Since 1 July heating degree days 0 0  
Cooling Degree Days 19 12  
Month to date cooling degree days 117 81  
Year to date cooling degree days 782 478  
Since 1 June cooling degree days 404 301  
Growing Degree Days 34 (Base 50)    
Moisture  
Dew Point 52 °F    
Average Humidity 37    
Maximum Humidity 57    
Minimum Humidity 17    
Precipitation  
Precipitation 0.00 in 0.00 in 0.11 in (1992)
Month to date precipitation 0.00 0.01  
Year to date precipitation 1.72 9.20  
Since 1 July precipitation 0.00 0.01  
Snow  
Snow 0.00 in - - ()
Month to date snowfall 0.0  
Year to date snowfall 0.0  
Since 1 July snowfall 0.0  
Snow Depth 0.00 in    
Sea Level Pressure  
Sea Level Pressure 29.85 in    
Wind  
Wind Speed 3 mph (West)    
Max Wind Speed 17 mph    
Max Gust Speed 23 mph    
Visibility 10 miles    
Events      
T = Trace of Precipitation, MM = Missing Value Source: NWS Daily Summary

Daily Weather History Graph

Daily Weather History Graph

Search for Another Location

Airport or City:

Trip Planner

Search our weather history database for the weather conditions in past years. The results will help you decide how hot, cold, wet, or windy it might be!

Date:

Astronomy

Jul. 07, 2014 Rise Set
Actual Time 5:45 AM PDT 8:04 PM PDT
Civil Twilight 5:16 AM PDT 8:32 PM PDT
Nautical Twilight 4:40 AM PDT 9:08 PM PDT
Astronomical Twilight 4:02 AM PDT 9:46 PM PDT
Moon 3:18 PM PDT (7/7) 1:33 AM PDT (7/7)
Length of Visible Light 15h 16m
Length of Day
14h 18m
Waxing Gibbous, 73% of the Moon is Illuminated
Jul 7
Waxing Gibbous
Jul 12
Full
Jul 18
Last Quarter
Jul 26
New
Aug 3
First Quarter

Hourly Weather History & Observations

Time (PDT) Temp. Heat Index Dew Point Humidity Pressure Visibility Wind Dir Wind Speed Gust Speed Precip Events Conditions
12:53 AM 75.0 °F - 50.0 °F 41% 29.88 in 10.0 mi Calm Calm - N/A   Clear
1:53 AM 73.0 °F - 51.1 °F 46% 29.87 in 10.0 mi West 3.5 mph - N/A   Clear
2:53 AM 72.0 °F - 52.0 °F 49% 29.87 in 10.0 mi Calm Calm - N/A   Clear
3:53 AM 71.1 °F - 53.1 °F 53% 29.86 in 10.0 mi Calm Calm - N/A   Clear
4:53 AM 70.0 °F - 54.0 °F 57% 29.87 in 10.0 mi Calm Calm - N/A   Clear
5:53 AM 69.1 °F - 52.0 °F 54% 29.88 in 10.0 mi Calm Calm - N/A   Clear
6:53 AM 71.1 °F - 54.0 °F 55% 29.90 in 10.0 mi ESE 3.5 mph - N/A   Clear
7:53 AM 73.9 °F - 54.0 °F 50% 29.90 in 10.0 mi Calm Calm - N/A   Clear
8:53 AM 80.1 °F 79.9 °F 53.1 °F 39% 29.89 in 10.0 mi Calm Calm - N/A   Clear
9:53 AM 82.9 °F - 48.9 °F 31% 29.88 in 10.0 mi West 3.5 mph - N/A   Clear
10:53 AM 87.1 °F - 48.0 °F 26% 29.88 in 10.0 mi Calm Calm - N/A   Clear
11:53 AM 91.0 °F - 44.1 °F 20% 29.86 in 10.0 mi NW 3.5 mph - N/A   Clear
12:53 PM 95.0 °F - 44.1 °F 17% 29.84 in 10.0 mi Variable 6.9 mph - N/A   Clear
1:53 PM 96.1 °F - 48.9 °F 20% 29.82 in 10.0 mi Variable 5.8 mph - N/A   Clear
2:53 PM 98.1 °F - 48.9 °F 19% 29.80 in 10.0 mi Variable 6.9 mph - N/A   Clear
3:53 PM 93.9 °F 92.0 °F 55.0 °F 27% 29.78 in 10.0 mi West 13.8 mph 20.7 mph N/A   Clear
4:53 PM 91.9 °F 90.3 °F 55.9 °F 30% 29.78 in 10.0 mi WNW 10.4 mph 21.9 mph N/A   Clear
5:53 PM 89.1 °F - 52.0 °F 28% 29.79 in 10.0 mi West 11.5 mph 20.7 mph N/A   Clear
6:53 PM 86.0 °F - 52.0 °F 31% 29.80 in 10.0 mi West 9.2 mph - N/A   Clear
7:53 PM 82.0 °F 81.3 °F 54.0 °F 38% 29.82 in 10.0 mi West 8.1 mph - N/A   Clear
8:53 PM 79.0 °F - 57.0 °F 47% 29.83 in 10.0 mi WNW 3.5 mph - N/A   Clear
9:53 PM 77.0 °F - 57.0 °F 50% 29.86 in 10.0 mi West 3.5 mph - N/A   Clear
10:53 PM 75.9 °F - 57.9 °F 54% 29.87 in 10.0 mi West 4.6 mph - N/A   Clear
11:53 PM 72.0 °F - 59.0 °F 64% 29.87 in 10.0 mi WSW 3.5 mph - N/A   Clear